Dewpoint
36 35 35 35 35 35 35 34 33 33 33 32 31 31 32 32 32 32 32 32 32 32 32 33 33 33 34 35 35 35 35 35 36 36 36 36 36 36 35 36 35 35 35 34 34 33 32 32 31 30 29 29 28 28 28 28 27 27 27 26 26 26 25 25 25 25 25 25 25
37 36 35 35 35 35 35 35 34 34 35 35 34 33 33 33 33 33 33 33 33 33 33 33 34 34 35 35 36 36 36 37 37 37 37 37 37 37 36 37 36 36 35 34 33 32 32 31 30 29 29 29 28 28 28 27 27 27 27 27 26 26 26 26 26 26 26 26 26
37 37 36 36 36 35 35 35 35 34 34 34 34 34 34 34 33 33 33 33 33 34 34 33 34 35 36 36 37 37 38 38 38 38 39 39 39 39 39 38 38 37 35 34 32 31 31 30 30 29 28 28 28 28 28 28 28 28 27 27 26 27 27 26 26 27 27 27 27
38 37 37 36 35 35 35 35 34 34 33 34 33 33 33 33 33 33 33 33 33 33 34 34 34 35 37 38 38 39 40 40 40 40 40 41 41 41 41 41 39 37 35 33 32 31 30 30 29 29 28 28 28 28 28 27 27 27 27 27 27 27 27 27 27 27 27 27 27
37 37 37 36 36 35 35 35 34 34 34 34 33 33 33 33 33 33 33 33 34 34 35 35 35 36 37 39 40 40 41 41 40 41 41 41 41 41 41 40 38 36 34 32 32 31 30 31 30 29 28 28 28 27 27 27 28 27 27 27 27 27 28 28 28 28 28 28 28
35 35 35 36 36 36 35 35 34 34 34 34 33 33 32 32 33 33 33 33 34 35 35 35 36 37 38 40 40 40 40 41 41 41 41 41 41 40 39 37 36 34 32 32 31 31 30 30 29 29 28 29 28 28 28 28 28 28 28 28 28 28 28 28 28 28 28 28 28
31 31 31 32 33 33 33 33 34 34 34 34 33 33 33 33 33 33 34 34 35 35 35 35 36 37 37 38 38 38 38 39 40 40 40 39 39 37 36 33 32 32 31 31 31 30 30 29 29 29 29 29 29 29 29 29 29 29 29 28 28 28 28 28 28 28 28 28 28
30 29 29 29 30 30 31 32 32 33 33 33 33 34 34 34 34 34 34 34 34 34 34 35 35 35 35 35 36 37 37 38 38 38 38 37 37 35 33 32 31 31 30 30 30 29 29 29 29 29 29 28 28 28 28 28 28 28 28 28 29 28 28 27 27 28 28 28 28
29 29 29 29 30 30 31 31 32 32 32 32 32 33 34 33 33 33 33 33 32 32 32 33 33 34 34 34 35 35 36 36 36 36 35 34 33 32 31 31 29 29 28 28 28 28 28 28 28 28 27 27 26 26 26 26 26 26 26 27 27 28 28 28 28 28 28 28 28
28 28 28 29 30 30 30 31 31 31 32 31 32 32 32 32 32 32 32 32 32 32 32 32 32 32 32 33 33 33 33 33 33 32 32 32 30 29 28 27 26 25 25 24 25 25 25 25 24 24 23 23 23 23 23 23 23 23 23 24 24 24 24 24 25 26 26 26 26
28 28 28 28 29 29 29 30 30 30 30 30 30 31 31 31 31 31 31 31 31 31 31 31 32 32 32 32 32 32 32 32 31 31 30 29 28 27 25 24 22 21 20 19 20 21 21 22 22 21 21 22 22 21 21 21 20 20 21 21 21 21 21 22 22 23 23 23 23
28 27 27 28 28 28 28 28 28 28 29 29 29 29 29 29 29 30 30 31 31 31 31 31 32 32 32 32 32 31 31 31 30 29 28 27 26 24 22 20 19 18 18 18 19 20 21 21 21 21 21 22 22 22 21 21 21 21 20 20 21 21 21 20 21 21 21 21 21
26 26 27 27 27 27 26 26 26 26 26 26 27 27 27 28 28 28 29 29 29 29 30 30 31 31 31 31 30 30 29 28 28 26 25 24 23 21 20 19 19 19 19 20 22 22 23 23 22 22 22 22 22 22 22 22 22 21 21 21 21 21 21 21 21 21 21 21 21
26 26 26 26 26 25 25 25 25 25 26 26 26 27 27 28 28 28 28 28 28 28 28 28 28 28 28 28 27 26 25 25 24 23 23 22 21 20 20 19 20 21 22 23 23 24 23 23 23 23 23 23 23 23 23 22 22 22 22 22 21 21 21 21 21 21 21 21 21
26 26 26 25 25 25 25 25 26 26 27 27 28 28 28 28 29 29 28 28 28 28 28 28 28 27 27 26 25 24 24 23 23 22 22 21 21 21 21 22 23 23 23 23 24 24 24 24 23 23 23 23 23 23 23 23 22 22 22 22 22 22 22 22 22 22 22 22 22
26 26 25 25 25 25 25 26 27 27 28 28 29 29 29 30 30 30 30 30 30 30 30 29 29 28 28 28 27 26 25 24 23 23 22 22 22 23 23 23 24 24 24 24 25 25 25 24 24 24 24 23 23 23 23 23 23 23 23 23 23 23 23 23 23 23 23 23 23
26 25 25 25 25 25 26 26 27 28 29 30 31 31 31 31 32 31 31 31 31 31 31 31 30 29 29 28 28 26 25 24 24 23 23 23 24 24 24 24 25 25 25 25 25 25 25 25 24 24 24 24 23 23 23 23 23 23 23 23 23 23 23 23 23 23 23 23 23
26 25 25 25 25 25 26 28 28 30 31 32 32 32 32 32 32 32 32 32 32 32 32 32 31 30 29 28 28 27 26 25 24 24 24 24 25 25 25 25 26 26 26 26 26 25 25 25 25 24 24 24 24 24 24 23 23 23 23 23 23 23 23 23 23 23 23 23 23
26 25 25 25 26 27 28 29 30 31 32 32 33 33 33 33 33 33 33 33 33 32 32 32 31 30 29 28 28 27 26 25 25 25 25 25 26 26 26 26 26 26 26 26 26 25 25 25 25 24 24 24 24 24 24 24 23 23 23 24 24 23 23 23 23 24 24 24 24
25 25 25 26 27 28 29 30 31 32 32 33 33 33 33 33 33 33 33 33 33 32 32 31 30 29 28 28 27 26 26 26 26 26 26 26 27 27 27 27 27 26 26 26 25 25 25 24 24 24 24 24 24 24 24 24 24 24 24 24 24 24 24 24 24 24 24 24 24
25 25 26 27 28 29 30 31 32 32 32 32 32 33 33 33 33 33 32 32 32 32 32 31 30 28 28 27 26 26 26 27 27 27 27 27 27 27 27 27 27 26 26 25 25 25 24 24 24 24 24 24 24 24 24 24 24 24 24 25 24 24 24 24 24 24 24 24 24
27 27 27 28 28 29 29 30 31 31 32 32 32 33 33 33 33 32 32 32 32 31 31 30 29 28 28 27 27 27 27 28 28 28 27 27 27 27 27 26 26 25 25 24 24 24 24 24 24 24 24 24 24 24 24 24 24 24 24 24 24 24 24 24 24 24 24 23 23
30 30 30 30 31 31 31 32 32 32 32 32 33 34 34 33 32 32 31 30 30 29 29 29 28 28 28 28 28 28 28 28 27 27 27 26 26 26 25 25 25 24 24 24 24 24 24 24 24 24 24 24 24 24 24 24 24 24 24 24 24 24 24 24 24 24 24 24 24
33 33 33 33 33 34 34 35 35 35 36 36 36 36 35 33 31 30 28 28 28 28 28 28 28 28 28 28 28 28 27 27 26 25 25 25 25 25 25 24 24 24 24 25 25 26 26 26 25 25 24 24 24 24 24 24 24 24 24 24 24 24 24 24 24 24 25 25 25
35 35 35 35 35 36 36 37 37 37 38 38 37 36 35 33 31 29 28 28 27 27 27 27 28 28 28 27 27 26 26 25 25 24 24 24 24 24 24 24 24 24 24 24 28 29 30 29 28 26 25 24 24 24 24 24 24 24 24 24 24 25 25 24 24 25 25 25 25
35 35 36 36 36 37 37 38 38 38 38 38 37 36 35 33 32 30 28 27 27 27 27 27 27 27 28 27 26 26 25 25 24 24 23 23 23 23 23 23 23 23 24 26 28 30 31 31 31 29 27 26 26 25 25 24 24 24 24 24 25 25 25 24 24 24 24 24 24
35 36 36 37 37 37 37 38 38 38 37 37 36 35 34 33 31 28 26 25 26 26 26 26 27 28 29 27 26 25 24 24 24 23 23 23 23 23 23 23 23 23 24 26 28 30 31 31 31 31 29 28 26 25 24 24 24 24 24 24 25 24 24 24 24 24 24 23 23
34 35 36 37 37 37 37 37 37 37 37 36 35 34 33 31 28 26 25 24 25 25 26 26 28 29 28 27 26 25 24 24 23 23 23 23 23 23 23 22 22 23 24 27 29 30 30 31 31 32 31 29 26 25 24 23 23 24 24 24 24 24 24 24 24 23 23 23 23
33 34 35 36 36 37 37 37 36 36 36 35 34 33 31 28 26 25 25 25 25 26 27 28 28 28 28 27 26 25 24 24 24 23 23 23 23 22 21 21 20 21 24 28 28 29 30 31 31 32 32 31 28 25 24 23 24 24 24 24 24 24 24 24 24 24 24 24 23
32 32 33 34 34 35 35 35 35 35 34 33 32 30 28 26 26 26 26 26 26 26 27 26 27 28 27 27 26 25 24 24 24 23 23 22 21 20 20 20 20 21 23 27 28 29 30 31 32 32 32 32 29 27 25 24 24 24 24 24 24 24 24 24 24 24 24 24 24
32 31 31 32 32 33 33 33 33 33 32 30 28 27 26 26 26 26 26 26 26 26 26 26 27 27 27 26 26 25 24 23 23 22 21 20 19 19 19 20 19 20 23 27 28 29 30 31 31 32 32 31 29 28 26 25 25 25 24 24 24 24 24 24 24 24 24 25 25
30 30 30 30 31 31 31 31 31 30 29 28 27 27 27 26 26 26 26 26 27 27 27 28 27 26 25 25 24 24 23 22 21 20 19 19 19 19 19 19 19 20 23 27 28 29 30 30 30 30 30 30 29 27 26 25 25 25 24 24 24 25 25 25 25 25 25 25 25
30 29 29 29 29 29 29 28 28 28 28 27 27 26 26 26 26 26 27 28 28 28 28 28 26 25 24 23 23 22 22 21 20 19 19 19 19 19 19 19 19 21 24 27 28 29 29 29 29 29 29 29 28 27 25 25 25 25 25 25 25 25 25 26 26 26 26 26 26
30 29 29 28 28 27 27 27 27 27 27 26 26 26 26 27 27 28 29 29 29 28 28 27 25 24 23 23 22 21 21 19 19 19 19 19 19 19 19 19 19 21 25 28 28 28 28 28 28 28 28 28 27 26 25 24 25 25 25 26 26 26 26 26 26 26 26 26 26
30 29 29 28 27 27 27 26 26 26 25 26 26 27 28 29 30 30 30 30 29 28 27 25 24 23 22 21 21 21 20 19 19 19 19 19 19 19 19 19 19 23 26 28 28 28 27 27 27 27 27 27 26 26 25 25 25 25 26 26 27 27 26 26 26 26 26 26 27
29 28 28 27 26 26 25 25 25 26 26 27 28 29 30 31 32 31 31 30 28 26 24 23 22 21 21 20 20 20 20 20 19 19 19 19 19 19 19 19 19 23 26 27 27 27 26 26 26 26 26 26 26 25 25 25 26 26 26 27 27 27 27 26 26 27 27 28 28
27 26 25 25 24 25 25 26 26 27 28 29 30 32 32 32 32 31 30 28 26 24 22 21 21 20 20 19 19 19 20 20 19 19 19 19 19 19 19 19 19 21 24 26 26 26 26 26 26 26 25 25 25 25 25 25 26 26 26 27 27 27 27 28 28 29 29 30 30
25 25 24 24 25 25 26 27 28 29 30 31 32 32 33 32 31 30 28 25 23 22 21 20 19 19 19 19 19 19 19 20 20 19 19 19 18 18 18 19 19 20 22 25 26 26 26 25 25 25 25 24 24 24 25 25 26 26 26 27 27 28 28 30 30 31 30 30 29
24 25 26 26 27 28 28 29 30 31 32 32 33 33 32 31 29 28 25 23 22 21 20 19 19 19 19 19 19 19 19 19 19 19 19 18 18 19 19 19 19 19 21 24 25 25 25 25 25 25 24 24 24 24 25 25 25 26 27 28 28 29 30 30 29 28 28 26 27
27 28 28 29 29 30 30 31 31 32 33 33 33 32 31 29 27 25 23 22 21 20 19 19 19 19 19 19 19 19 19 19 19 19 18 18 18 21 22 19 19 19 21 24 25 25 25 24 24 24 24 24 24 24 25 25 25 26 28 28 28 28 28 27 26 25 24 23 24
28 29 30 30 31 31 32 32 32 33 33 32 31 30 28 25 23 22 21 20 20 19 19 19 19 19 19 19 19 19 18 18 18 18 17 17 18 20 22 19 18 19 20 23 24 25 25 24 24 24 24 24 24 24 25 24 25 27 28 28 27 26 25 24 23 23 23 22 22